Change the Weather History Date:

Monday, January 6, 2014

  Actual Average Record
Temperature  
Mean Temperature 0 °F 32 °F  
Max Temperature 10 °F 42 °F 72 °F (2008)
Min Temperature -10 °F 23 °F -10 °F (1912)
Degree Days  
Heating Degree Days 65 33  
Month to date heating degree days 279 198  
Since 1 July heating degree days 2232 1991  
Cooling Degree Days 0 0  
Month to date cooling degree days 0 0  
Year to date cooling degree days 0 0  
Moisture  
Dew Point -13 °F    
Average Humidity 60    
Maximum Humidity 75    
Minimum Humidity 45    
Precipitation  
Precipitation 0.00 in 0.04 in 0.37 in (1930)
Month to date precipitation T 0.24  
Year to date precipitation T 0.24  
Sea Level Pressure  
Sea Level Pressure 30.62 in    
Wind  
Wind Speed 9 mph (West)    
Max Wind Speed 20 mph    
Max Gust Speed 24 mph    
Visibility 10 miles    
Events      
T = Trace of Precipitation, MM = Missing Value Source: NWS Daily Summary

Daily Weather History Graph

Daily Weather History Graph

Search for Another Location

Airport or City:

Trip Planner

Search our weather history database for the weather conditions in past years. The results will help you decide how hot, cold, wet, or windy it might be!

Date:

Astronomy

Jan. 06, 2014 Rise Set
Actual Time 7:37 AM CST 5:18 PM CST
Civil Twilight 7:08 AM CST 5:47 PM CST
Nautical Twilight 6:35 AM CST 6:20 PM CST
Astronomical Twilight 6:04 AM CST 6:51 PM CST
Moon 11:00 AM CST (1/6) 11:45 PM CST (1/6)
Length of Visible Light 10h 39m
Length of Day
9h 41m
Waxing Crescent, 35% of the Moon is Illuminated
Jan 6
Waxing Crescent
Jan 7
First Quarter
Jan 15
Full
Jan 23
Last Quarter
Jan 30
New

Hourly Weather History & Observations

Time (CST) Temp. Windchill Dew Point Humidity Pressure Visibility Wind Dir Wind Speed Gust Speed Precip Events Conditions
12:52 AM 3.0 °F -13.3 °F -9.0 °F 57% 30.60 in 10.0 mi NW 11.5 mph - N/A   Clear
1:52 AM 1.0 °F -18.0 °F -11.9 °F 55% 30.63 in 10.0 mi NNW 15.0 mph - N/A   Clear
2:52 AM -2.0 °F -18.7 °F -17.0 °F 49% 30.65 in 10.0 mi NNW 10.4 mph - N/A   Clear
3:52 AM -2.9 °F -20.8 °F -18.0 °F 49% 30.66 in 10.0 mi NW 11.5 mph - N/A   Clear
4:52 AM -5.1 °F -17.6 °F -18.0 °F 54% 30.65 in 10.0 mi NW 5.8 mph - N/A   Clear
5:52 AM -9.0 °F -18.2 °F -18.9 °F 62% 30.65 in 10.0 mi West 3.5 mph - N/A   Clear
6:52 AM -8.0 °F -16.9 °F -18.0 °F 61% 30.66 in 10.0 mi West 3.5 mph - N/A   Clear
7:52 AM -9.0 °F -20.4 °F -18.0 °F 65% 30.67 in 10.0 mi West 4.6 mph - N/A   Clear
8:52 AM -2.9 °F -20.8 °F -16.1 °F 54% 30.70 in 10.0 mi WNW 11.5 mph - N/A   Clear
9:52 AM -0.0 °F -16.3 °F -15.0 °F 49% 30.70 in 10.0 mi NW 10.4 mph - N/A   Clear
10:52 AM 1.9 °F -14.7 °F -15.0 °F 45% 30.70 in 10.0 mi NW 11.5 mph - N/A   Clear
11:52 AM 3.9 °F -13.7 °F -13.0 °F 46% 30.66 in 10.0 mi West 13.8 mph - N/A   Clear
12:52 PM 7.0 °F -11.0 °F -11.0 °F 44% 30.64 in 10.0 mi WNW 16.1 mph - N/A   Clear
1:52 PM 8.1 °F -7.7 °F -9.0 °F 46% 30.62 in 10.0 mi WNW 12.7 mph - N/A   Clear
2:52 PM 9.0 °F -5.9 °F -9.0 °F 44% 30.60 in 10.0 mi West 11.5 mph - N/A   Clear
3:52 PM 10.0 °F -5.2 °F -8.0 °F 44% 30.59 in 10.0 mi West 12.7 mph - N/A   Clear
4:52 PM 9.0 °F -3.2 °F -8.0 °F 46% 30.58 in 10.0 mi West 8.1 mph - N/A   Clear
5:52 PM 5.0 °F -4.1 °F -9.0 °F 52% 30.59 in 10.0 mi West 4.6 mph - N/A   Clear
6:52 PM -0.9 °F - -11.9 °F 60% 30.59 in 10.0 mi Calm Calm - N/A   Clear
7:52 PM -4.0 °F -16.3 °F -11.9 °F 69% 30.60 in 10.0 mi SW 5.8 mph - N/A   Clear
8:52 PM -2.9 °F -15.0 °F -11.9 °F 65% 30.58 in 10.0 mi South 5.8 mph - N/A   Clear
9:52 PM -2.0 °F -12.2 °F -9.9 °F 69% 30.56 in 10.0 mi South 4.6 mph - N/A   Clear
10:52 PM -2.0 °F -15.4 °F -9.0 °F 72% 30.53 in 10.0 mi South 6.9 mph - N/A   Clear
11:52 PM -0.9 °F -14.1 °F -8.0 °F 72% 30.51 in 10.0 mi South 6.9 mph - N/A   Clear